Date String (YYYY-MM-DD hh:mm:ss) UTC,Instrument flags,absolute air pressure of the measurement (hPa),sample flow rate (lpm),inlet stack bypass flow (lpm),air temperature of the measurement (°C),ambient temperature measured by the external sensor (°C),aerosol sample conditioner tube jacket temperature (°C),OPC LED temperature (°C),internal box temperature (°C),relative humidity of the measurement (%),span deviation,mass concentration of particles derived from Lorenz-Mie calculation of OPC scattering (μg/m³),mass concentration of particles derived from Lorenz-Mie calculation of OPC scattering (μg/m³),mass concentration of particles derived from Lorenz-Mie calculation of OPC scattering (μg/m³)
DateTimeUTC,F1_M11,P_M11,Q1_M11,Q2_M11,T1_M11,T2_M11,T3_M11,T4_M11,T5_M11,U1_M11,ZSPAN_M11,X0_M11,X2_M11,X1_M11
2023-07-28 20:00:00,SystemResetWarning,0835.0,5.01,000.00,029.6,024.9,000.0,037.6,030.3,28.0,0000.0,0017.80,0005.96,0004.48
2023-07-28 20:01:00,SystemResetWarning,0835.0,5.01,000.00,029.5,024.9,000.0,037.6,030.1,30.3,0000.0,0016.99,0005.92,0004.47
2023-07-28 20:02:00,SystemResetWarning,0835.0,5.00,000.00,029.4,025.3,000.0,037.6,030.0,31.3,0000.0,0017.04,0005.90,0004.46
2023-07-28 20:03:00,SystemResetWarning,0835.0,4.99,000.00,029.4,025.7,000.0,037.6,030.2,32.1,0000.0,0016.82,0005.84,0004.44
2023-07-28 20:04:00,SystemResetWarning,0835.0,4.99,000.00,029.4,026.2,000.0,037.6,030.3,32.6,0000.0,0016.84,0005.85,0004.44
2023-07-28 20:05:00,SystemResetWarning,0835.0,5.01,000.00,029.4,026.6,000.0,037.6,030.4,33.1,0000.0,0017.19,0005.86,0004.43
2023-07-28 20:06:00,SystemResetWarning,0835.1,5.00,000.00,029.4,027.0,000.0,037.6,030.5,33.3,0000.0,0017.14,0005.87,0004.42
2023-07-28 20:07:00,SystemResetWarning,0835.1,4.98,000.00,029.4,026.6,000.0,037.6,030.5,34.0,0000.0,0015.67,0005.78,0004.38
2023-07-28 20:08:00,SystemResetWarning,0835.1,5.01,000.00,029.4,025.3,000.0,037.5,030.2,32.6,0000.0,0016.30,0005.73,0004.34
2023-07-28 20:09:00,SystemResetWarning,0835.1,5.00,000.00,029.3,024.8,000.0,037.4,030.1,32.2,0000.0,0016.00,0005.74,0004.32
2023-07-28 20:10:00,SystemResetWarning,0835.1,5.01,000.00,029.2,025.0,000.0,037.4,030.0,31.7,0000.0,0015.59,0005.73,0004.29
2023-07-28 20:11:00,SystemResetWarning,0835.2,5.00,000.00,029.1,025.5,000.0,037.4,030.0,33.2,0000.0,0015.77,0005.71,0004.26
2023-07-28 20:12:00,SystemResetWarning,0835.2,4.99,000.00,029.1,025.9,000.0,037.4,030.1,32.7,0000.0,0015.76,0005.64,0004.23
2023-07-28 20:13:00,SystemResetWarning,0835.2,5.00,000.00,029.1,026.4,000.0,037.4,030.2,34.1,0000.0,0015.29,0005.55,0004.18
2023-07-28 20:14:00,SystemResetWarning,0835.3,5.00,000.00,029.1,026.8,000.0,037.4,030.4,34.1,0000.0,0014.99,0005.54,0004.14
2023-07-28 20:15:00,SystemResetWarning,0835.3,5.00,000.00,029.2,027.1,000.0,037.4,030.5,34.2,0000.0,0015.52,0005.51,0004.12
2023-07-28 20:16:00,SystemResetWarning,0835.3,5.00,000.00,029.2,026.8,000.0,037.4,030.5,33.9,0000.0,0016.19,0005.50,0004.09
2023-07-28 20:17:00,SystemResetWarning,0835.3,4.99,000.00,029.2,025.3,000.0,037.2,030.3,33.7,0000.0,0016.76,0005.42,0004.05
2023-07-28 20:18:00,SystemResetWarning,0835.3,5.01,000.00,029.2,024.7,000.0,037.2,030.1,34.3,0000.0,0017.03,0005.39,0004.04
2023-07-28 20:19:00,SystemResetWarning,0835.3,5.01,000.00,029.1,025.0,000.0,037.2,030.0,34.0,0000.0,0017.47,0005.43,0004.07
2023-07-28 20:20:00,SystemResetWarning,0835.3,4.99,000.00,029.1,025.4,000.0,037.2,030.0,32.5,0000.0,0018.26,0005.44,0004.10
2023-07-28 20:21:00,SystemResetWarning,0835.2,4.98,000.00,029.1,025.9,000.0,037.3,030.1,36.3,0000.0,0018.36,0005.48,0004.15
2023-07-28 20:22:00,SystemResetWarning,0835.2,5.03,000.00,029.3,026.3,000.0,037.3,030.3,38.5,0000.0,0018.70,0005.56,0004.21
2023-07-28 20:23:00,SystemResetWarning,0835.1,4.98,000.00,029.6,026.7,000.0,037.3,030.5,37.7,0000.0,0019.24,0005.70,0004.28
2023-07-28 20:24:00,SystemResetWarning,0835.2,5.01,000.00,030.0,027.0,000.0,037.4,030.8,35.3,0000.0,0019.84,0005.84,0004.38
2023-07-28 20:25:00,SystemResetWarning,0835.2,4.98,000.00,030.4,027.3,000.0,037.4,030.9,34.9,0000.0,0020.50,0005.93,0004.46
2023-07-28 20:26:00,SystemResetWarning,0835.1,5.03,000.00,030.7,026.3,000.0,037.4,030.9,34.3,0000.0,0021.45,0005.93,0004.52
2023-07-28 20:27:00,SystemResetWarning,0835.1,4.98,000.00,030.9,025.1,000.0,037.5,030.8,33.0,0000.0,0020.41,0005.96,0004.59
2023-07-28 20:28:00,SystemResetWarning,0835.1,5.00,000.00,031.0,025.0,000.0,037.5,030.6,33.3,0000.0,0020.40,0006.08,0004.68
2023-07-28 20:29:00,SystemResetWarning,0835.1,5.01,000.00,030.9,025.3,000.0,037.7,030.5,33.4,0000.0,0021.02,0006.20,0004.76
2023-07-28 20:30:00,SystemResetWarning,0835.1,5.00,000.00,030.9,025.7,000.0,037.9,030.5,32.3,0000.0,0020.83,0006.29,0004.81
2023-07-28 20:31:00,SystemResetWarning,0835.1,5.00,000.00,030.9,026.2,000.0,038.0,030.6,32.6,0000.0,0020.17,0006.30,0004.84
2023-07-28 20:32:00,SystemResetWarning,0835.2,5.00,000.00,030.9,026.6,000.0,038.1,030.7,30.8,0000.0,0020.13,0006.29,0004.86
2023-07-28 20:33:00,SystemResetWarning,0835.2,5.01,000.00,030.9,027.0,000.0,038.2,030.8,30.5,0000.0,0019.21,0006.26,0004.85
2023-07-28 20:34:00,SystemResetWarning,0835.3,5.00,000.00,030.9,027.3,000.0,038.3,030.9,30.7,0000.0,0019.06,0006.22,0004.85
2023-07-28 20:35:00,SystemResetWarning,0835.3,4.98,000.00,031.0,026.4,000.0,038.3,030.9,30.2,0000.0,0018.96,0006.18,0004.83
2023-07-28 20:36:00,SystemResetWarning,0835.2,5.01,000.00,030.9,025.2,000.0,038.2,030.7,31.8,0000.0,0018.80,0006.18,0004.83
2023-07-28 20:37:00,SystemResetWarning,0835.2,5.01,000.00,030.9,025.0,000.0,038.2,030.6,31.8,0000.0,0017.96,0006.23,0004.85
2023-07-28 20:38:00,SystemResetWarning,0835.3,5.00,000.00,030.7,025.3,000.0,038.2,030.4,29.9,0000.0,0019.30,0006.27,0004.86
2023-07-28 20:39:00,SystemResetWarning,0835.3,5.00,000.00,030.6,025.7,000.0,038.3,030.5,27.8,0000.0,0019.29,0006.30,0004.89
2023-07-28 20:40:00,SystemResetWarning,0835.3,4.99,000.00,030.6,026.2,000.0,038.4,030.6,28.8,0000.0,0018.49,0006.35,0004.92
2023-07-28 20:41:00,SystemResetWarning,0835.3,5.01,000.00,030.5,026.6,000.0,038.4,030.7,30.2,0000.0,0018.84,0006.33,0004.94
2023-07-28 20:42:00,SystemResetWarning,0835.3,5.01,000.00,030.5,027.0,000.0,038.4,030.8,30.8,0000.0,0018.98,0006.36,0004.95
2023-07-28 20:43:00,SystemResetWarning,0835.2,4.99,000.00,030.5,026.9,000.0,038.4,030.8,31.4,0000.0,0018.74,0006.42,0004.96
2023-07-28 20:44:00,SystemResetWarning,0835.3,4.99,000.00,030.5,025.6,000.0,038.2,030.7,30.4,0000.0,0018.84,0006.51,0004.99
2023-07-28 20:45:00,SystemResetWarning,0835.3,5.01,000.00,030.4,024.9,000.0,038.2,030.5,31.1,0000.0,0018.33,0006.59,0005.01
2023-07-28 20:46:00,SystemResetWarning,0835.3,5.01,000.00,030.3,025.0,000.0,038.1,030.3,33.1,0000.0,0019.31,0006.63,0005.05
2023-07-28 20:47:00,SystemResetWarning,0835.4,5.00,000.00,030.2,025.4,000.0,038.2,030.3,33.7,0000.0,0019.20,0006.72,0005.11
2023-07-28 20:48:00,SystemResetWarning,0835.4,5.00,000.00,030.1,025.9,000.0,038.2,030.4,33.1,0000.0,0019.95,0006.74,0005.17
2023-07-28 20:49:00,SystemResetWarning,0835.5,5.00,000.00,030.1,026.4,000.0,038.2,030.6,32.8,0000.0,0019.11,0006.77,0005.20
2023-07-28 20:50:00,SystemResetWarning,0835.5,5.00,000.00,030.1,026.8,000.0,038.2,030.7,33.9,0000.0,0018.96,0006.69,0005.19
2023-07-28 20:51:00,SystemResetWarning,0835.5,5.00,000.00,030.1,027.1,000.0,038.2,030.7,34.0,0000.0,0019.78,0006.66,0005.18
2023-07-28 20:52:00,SystemResetWarning,0835.5,4.99,000.00,030.1,027.1,000.0,038.2,030.8,33.7,-000.7,0020.15,0006.65,0005.18
2023-07-28 20:53:00,SystemResetWarning,0835.5,4.99,000.00,030.1,025.8,000.0,038.0,030.6,33.9,-002.0,0020.46,0006.66,0005.21
2023-07-28 20:54:00,SystemResetWarning,0835.4,5.00,000.00,030.0,025.0,000.0,037.9,030.4,34.7,-001.5,0020.58,0006.69,0005.23
2023-07-28 20:55:00,SystemResetWarning,0835.4,5.02,000.00,029.9,025.0,000.0,037.9,030.3,35.5,-001.4,0020.52,0006.69,0005.24
2023-07-28 20:56:00,SystemResetWarning,0835.4,5.02,000.00,030.0,025.3,000.0,037.9,030.3,34.8,-000.7,0020.63,0006.60,0005.21
2023-07-28 20:57:00,SystemResetWarning,0835.5,4.97,000.00,030.2,025.8,000.0,037.9,030.5,34.3,0000.0,0019.97,0006.52,0005.17
2023-07-28 20:58:00,SystemResetWarning,0835.5,5.03,000.00,030.3,026.3,000.0,038.0,030.7,34.0,0001.2,0019.10,0006.47,0005.14
2023-07-28 20:59:00,SystemResetWarning,0835.5,5.00,000.00,030.4,026.7,000.0,038.0,030.8,34.0,0000.9,0020.51,0006.44,0005.10
